Regional Weather Roundup
Issued by NWS

Home | Current Version | Previous Version | Text Only | Print | Product List | Glossary Off
Versions: 1 2 3 4 5 6 7 8 9 10 11 12 13 14 15 16 17 18 19 20 21 22 23 24 25 26 27 28 29 30 31 32 33 34 35 36 37 38 39 40 41 42 43 44 45 46 47 48 49 50

000
ASUS43 KLMK 010102
RWRKY
KENTUCKY REGIONAL WEATHER ROUNDUP
NATIONAL WEATHER SERVICE LOUISVILLE KY
900 PM EDT THU JUL 31 2014

NOTE "FAIR" INDICATES FEW OR NO CLOUDS BELOW 12,000 FEET
WITH NO SIGNIFICANT WEATHER AND/OR OBSTRUCTIONS TO VISIBILITY.

KYZ001>023-026-027-061>063-070>075-010200-
WESTERN AND SOUTH CENTRAL KENTUCKY

CITY           SKY/WX    TMP DP  RH WIND       PRES   REMARKS
PADUCAH        MOCLDY    74  65  73 CALM      30.05F
HENDERSON      PTCLDY   N/A N/A N/A MISG        N/A
OWENSBORO      PTCLDY    77  63  61 CALM      30.06S
HOPKINSVILLE   MOCLDY    77  60  56 W5        30.06R
BOWLING GREEN  MOCLDY    78  56  46 CALM      30.06S
GLASGOW        PTCLDY    75  56  51 E3        30.07S
$$

KYZ024-025-028>034-038-045-046-053-010200-
NORTH CENTRAL KENTUCKY

CITY           SKY/WX    TMP DP  RH WIND       PRES   REMARKS
LOUISVILLE/SDF PTCLDY    78  55  44 SW5       30.06S
LOUISVILLE/LOU PTCLDY    80  54  40 W5        30.07S
FORT KNOX      NOT AVBL
$$

KYZ035>037-039>044-047>052-055>060-089>105-010200-
NORTHEAST KENTUCKY

CITY           SKY/WX    TMP DP  RH WIND       PRES   REMARKS
LEXINGTON      PTCLDY    76  60  57 CALM      30.09S
COVINGTON      MOCLDY    73  60  63 CALM      30.08S
FRANKFORT      PTCLDY    71  61  70 CALM      30.07S
$$

KYZ054-064>069-076>088-106>120-010200-
SOUTHEAST KENTUCKY

CITY           SKY/WX    TMP DP  RH WIND       PRES   REMARKS
JACKSON        PTCLDY    73  55  53 CALM      30.11S
LONDON         PTCLDY    74  60  61 CALM      30.10F
SOMERSET       PTCLDY    72  59  64 CALM      30.10S
MIDDLESBORO    PTCLDY    71  64  78 CALM      30.11R
MONTICELLO     MOCLDY    68  65  90 CALM      30.10F
$$




USA.gov is the U.S. government's official web portal to all federal, state and local government web resources and services.